Regional Weather Roundup
Issued by NWS

Home | Current Version | Previous Version | Graphics & Text | Print | Product List | Glossary On
Versions: 1 2 3 4 5 6 7 8 9 10 11 12 13 14 15 16 17 18 19 20 21 22 23 24 25 26 27 28 29 30 31 32 33 34 35 36 37 38 39 40 41 42 43 44 45 46 47 48 49 50
000
ASUS43 KLSX 071907
RWRMO

WEATHER SUMMARY FOR MISSOURI
NATIONAL WEATHER SERVICE SPRINGFIELD MO
200 PM CDT TUE JUL 07 2015

NOTE: "FAIR" INDICATES FEW OR NO CLOUDS BELOW 12,000 FEET WITH NO
       SIGNIFICANT WEATHER AND/OR OBSTRUCTIONS TO VISIBILITY.
       CURRENT SKY AND/OR WEATHER CONDITIONS ARE NOT AVAILABLE FOR
       CHILLICOTHE AND FARMINGTON.

MOZ001>031-035>038-043-044-053-054-072000-
...NORTHERN AND WESTERN MISSOURI...

CITY           SKY/WX    TMP DP  RH WIND       PRES   REMARKS
KANSAS CTY INT CLOUDY    70  61  73 N14       30.07F
KANSAS C DTWN  PTSUNNY   74  61  63 N14       30.05F
ST JOSEPH      PTSUNNY   72  59  63 N12       30.08F
CHILLICOTHE      N/A     74  59  59 NE7       30.07S
KIRKSVILLE     PTSUNNY   73  58  59 N13       30.06F HAZE

$$
MOZ066>068-077>081-088>096-101>105-072000-
...SOUTHWEST MISSOURI...

CITY           SKY/WX    TMP DP  RH WIND       PRES   REMARKS
SPRINGFIELD    CLOUDY    70  69  97 NW9       30.00S FOG
JOPLIN         CLOUDY    65  63  93 N8        30.03S FOG

$$
MOZ032>034-039>042-045>050-055>058-069>072-072000-
...CENTRAL MISSOURI...

CITY           SKY/WX    TMP DP  RH WIND       PRES   REMARKS
COLUMBIA       CLOUDY    67  64  90 N10       30.03S FOG
JEFFERSON CITY LGT RAIN  66  63  90 NE5       30.02  FOG
ROLLA          CLOUDY    68  66  93 N10       29.99S
SEDALIA        CLOUDY    70  61  73 NE12      30.04S HAZE
WHITEMAN AFB   CLOUDY    69  61  75 NE10      30.03S HAZE
WARRENSBURG    CLOUDY    70  61  73 N9        30.03F HAZE
OSAGE BEACH    CLOUDY    66  63  88 N7        30.01S

$$
MOZ051-052-059>065-072000-
...EAST CENTRAL MISSOURI...

CITY           SKY/WX    TMP DP  RH WIND       PRES   REMARKS
ST LOUIS INTL  CLOUDY    70  65  84 N8        30.00S HAZE
SPIRIT OF STL  CLOUDY    69  67  93 N10       29.99S FOG
ST CHARLES     CLOUDY    70  65  84 N12       29.99S

$$
MOZ072>076-082>087-097>100-106>115-072000-
...SOUTH CENTRAL AND SOUTHEAST MISSOURI...

CITY           SKY/WX    TMP DP  RH WIND       PRES   REMARKS
CAPE GIRARDEAU LGT RAIN  75  71  87 NW3       29.98S
FARMINGTON     CLOUDY    77  73  88 S5        30.02R
POPLAR BLUFF   CLOUDY    83  73  72 SW12      29.96R
WEST PLAINS    CLOUDY    72  69  90 SW7       30.01F

$$


USA.gov is the U.S. government's official web portal to all federal, state and local government web resources and services.